SL-16 DEB

Satellite information

Favourite Embed

Satellite Type and Status

DEBRISIN ORBIT

Key statistics

Satellite SL-16 DEB at a glance.

Uptime

12042

Days in orbit

Revolutions

≈ 14.3

Per day

Orbit

LEO

Low Earth Orbit

Inclination

70.9

Latest

Satellite identification and parameters

Extended collection of information and parameters for SL-16 DEB.

Object identification

Identified? True

Debris? True

Object name: SL-16 DEB

International designator: 1992-093LK

Object number (NORAD): 39857

Object ID (CCSDS): 39857

Country: COMMONWEALTH OF INDEPENDENT STATES (CIS)

Current information (Y/N): Y

RCS size: SMALL

Orbital parameters

Period: 101.015 minutes

Inclination: 70.9168 deg

SMA: 7184.856 km

Apoapsis: 847.7 km

Periapsis: 765.741 km

RAAN: 216.1235 deg

Eccentricy: 0.0057036

Argument of periapsis: 152.2915 deg

Mean anomaly: 208.1272 deg

Mean motion: 14.25527769 rev/day

Mean motion (dot): 0.00002276 rev/day2

B* drag term: 0.00096590071 1/REarth

Two-line elements (TLE)

Creation date: Dec. 10, 2025, 10:40 a.m.

Reference frame: TEME

Reference center: EARTH

Epoch: Dec. 9, 2025, 10:02 p.m. UTC

TLE line 0: 0 SL-16 DEB

TLE line 1: 1 39857U 92093LK 25343.91836419 .00002276 00000-0 96590-3 0 9992

TLE line 2: 2 39857 70.9168 216.1235 0057036 152.2915 208.1272 14.25527769596078

Live tracking on map

Real-time ground track for satellite SL-16 DEB.

In-orbit conjunctions

A list of the most updated potential collisions computed for object SL-16 DEB.

Target Orbit TCA Probability of collision Miss distance Type
NOAA 16 DEB SSO 2025-07-10 14:52:37 0.0002671036 57.0 (m) DEBRIS
AAU CUBESAT SSO 2025-04-09 21:16:46 0.0006004872 214.0 (m) PAYLOAD
CZ-6A DEB LEO 2025-03-14 03:56:12 0.0001106866 108.0 (m) DEBRIS
COSMOS 1603 DEB LEO 2024-06-10 23:49:16 0.0001031868 349.0 (m) DEBRIS

Associated space launch

Second generation ELING satellite

SL-16 DEB was lifted into orbit during the mission ‘Zenit-2 | Tselina-2 12’, on board a Zenit-2 space rocket.

The launch took place on Dec. 25, 1992, 5:56 a.m. from 45/1.

For more information about the launch, click the button.

Launch to space Zenit-2 | Tselina-2 12
Zenit-2 | Tselina-2 12

Agency: N/A

Status: Launch Successful

Launch date: Dec. 25, 1992, 5:56 a.m. UTC

Rocket: Zenit-2

Launch pad: 45/1

Location: Baikonur Cosmodrome, Republic of Kazakhstan

...

Latest news about this satellite

There are no fresh news available about this satellite. Check back as we update our databases every day.


Newsletter sign-up

Weekly statistics, charts and insights to help you stay on top of the space industry.